Weather History for Saginaw, MI

Change the Weather History Date:

Tuesday, October 23, 2012

  Actual Average Record
Temperature  
Mean Temperature 58 °F 47 °F  
Max Temperature 60 °F 56 °F 69 °F (1998)
Min Temperature 55 °F 38 °F 28 °F (1997)
Degree Days  
Heating Degree Days 8    
Month to date heating degree days  
Since 1 July heating degree days  
Cooling Degree Days 0    
Month to date cooling degree days  
Year to date cooling degree days  
Growing Degree Days 8 (Base 50)    
Moisture  
Dew Point 55 °F    
Average Humidity 94    
Maximum Humidity 100    
Minimum Humidity 88    
Precipitation  
Precipitation 0.25 in 0.08 in 0.86 in (2001)
Month to date precipitation 1.96  
Year to date precipitation 26.31  
Snow  
Snow 0.00 in - - ()
Month to date snowfall  
Since 1 July snowfall  
Since 1 September snowfall  
Snow Depth -    
Sea Level Pressure  
Sea Level Pressure 29.96 in    
Wind  
Wind Speed 6 mph (NE)    
Max Wind Speed 18 mph    
Max Gust Speed -    
Visibility 1 miles    
Events Fog , Rain    
T = Trace of Precipitation, MM = Missing Value Source: NWS Daily Summary

Daily Weather History Graph

Daily Weather History Graph

Search for Another Location

Airport:

Trip Planner

Search our weather history database for the weather conditions in past years. The results will help you decide how hot, cold, wet, or windy it might be!

Date:

Astronomy

Oct. 23, 2012 Rise Set
Actual Time 8:00 AM EDT 6:39 PM EDT
Civil Twilight 7:31 AM EDT 7:08 PM EDT
Nautical Twilight 6:58 AM EDT 7:42 PM EDT
Astronomical Twilight 6:25 AM EDT 8:15 PM EDT
Moon 3:32 PM EDT (10/23) 1:41 AM EDT (10/23)
Length of Visible Light 11h 37m
Length of Day
10h 38m
Waxing Gibbous, 66% of the Moon is Illuminated
Oct 23
Waxing Gibbous
Oct 29
Full
Nov 6
Last Quarter
Nov 13
New
Nov 20
First Quarter

Hourly Weather History & Observations

Time (EDT) Temp. Dew Point Humidity Pressure Visibility Wind Dir Wind Speed Gust Speed Precip Events Conditions
12:53 AM 60.8 °F 57.2 °F 88% 29.97 in 2.5 mi Calm Calm - N/A Rain Rain
1:08 AM 60.8 °F 57.2 °F 88% 29.96 in 2.5 mi Calm Calm - 0.05 in Rain Rain
1:21 AM 59.0 °F 57.2 °F 94% 29.96 in 1.8 mi Calm Calm - 0.06 in Rain Light Rain
1:29 AM 57.2 °F 55.4 °F 94% 29.96 in 1.2 mi NE 3.5 mph - 0.06 in Rain Light Rain
2:27 AM 59.0 °F 57.2 °F 94% 29.94 in 1.5 mi East 5.8 mph - 0.01 in Rain Light Rain
2:48 AM 59.0 °F 57.2 °F 94% 29.93 in 1.8 mi ENE 4.6 mph - 0.06 in Rain Rain
2:53 AM 59.0 °F 57.9 °F 96% 29.92 in 1.5 mi ENE 3.5 mph - 0.08 in Rain Rain
3:08 AM 60.8 °F 57.2 °F 88% 29.92 in 2.5 mi ENE 5.8 mph - 0.04 in Rain Rain
3:45 AM 59.0 °F 57.2 °F 94% 29.91 in 1.8 mi ENE 6.9 mph - 0.09 in Rain Light Rain
3:53 AM 60.1 °F 57.9 °F 93% 29.91 in 1.8 mi East 8.1 mph - 0.09 in Rain Light Rain
4:01 AM 60.8 °F 57.2 °F 88% 29.91 in 2.0 mi East 6.9 mph - 0.01 in Rain Light Rain
4:14 AM 59.0 °F 57.2 °F 94% 29.90 in 2.0 mi East 6.9 mph - 0.01 in Rain Light Rain
4:53 AM 59.0 °F 57.9 °F 96% 29.90 in 2.0 mi NE 6.9 mph - 0.02 in   Overcast
5:04 AM 59.0 °F 57.2 °F 94% 29.90 in 1.8 mi ENE 5.8 mph - N/A   Overcast
5:23 AM 60.8 °F 57.2 °F 88% 29.91 in 2.0 mi ENE 4.6 mph - N/A   Overcast
5:49 AM 59.0 °F 57.2 °F 94% 29.92 in 1.2 mi NNE 4.6 mph - N/A   Overcast
5:53 AM 59.0 °F 57.9 °F 96% 29.92 in 1.2 mi NNE 4.6 mph - N/A   Overcast
6:25 AM 59.0 °F 57.2 °F 94% 29.92 in 0.8 mi NE 6.9 mph - N/A   Mist
6:48 AM 57.2 °F 57.2 °F 100% 29.92 in 1.5 mi NNE 9.2 mph - N/A   Overcast
6:53 AM 59.0 °F 57.0 °F 93% 29.93 in 1.5 mi NNE 11.5 mph - N/A   Overcast
7:08 AM 57.2 °F 55.4 °F 94% 29.93 in 2.0 mi NNE 11.5 mph - N/A   Overcast
7:38 AM 57.2 °F 55.4 °F 94% 29.95 in 0.8 mi NNE 10.4 mph - N/A   Overcast
7:53 AM 57.0 °F 55.0 °F 93% 29.96 in 0.8 mi NNE 6.9 mph - N/A   Overcast
8:53 AM 57.0 °F 55.9 °F 96% 29.95 in 1.0 mi NNE 13.8 mph - N/A   Overcast
9:03 AM 57.2 °F 55.4 °F 94% 29.94 in 0.8 mi NE 18.4 mph - N/A   Overcast
9:28 AM 55.4 °F 55.4 °F 100% 29.95 in 0.2 mi NNE 12.7 mph - N/A Fog Fog
9:37 AM 55.4 °F 55.4 °F 100% 29.96 in 0.5 mi NNE 11.5 mph - N/A Fog Fog
9:49 AM 55.4 °F 53.6 °F 94% 29.96 in 0.2 mi NNE 13.8 mph - N/A Fog Fog
9:53 AM 55.9 °F 54.0 °F 93% 29.95 in 0.2 mi NNE 15.0 mph - N/A Fog Fog
10:53 AM 55.9 °F 54.0 °F 93% 29.98 in 0.1 mi NE 11.5 mph - N/A Fog Fog
11:53 AM 55.9 °F 55.0 °F 97% 30.01 in 0.1 mi North 3.5 mph - N/A Fog Fog
12:53 PM 55.4 °F 55.4 °F 100% 30.00 in 0.1 mi North 6.9 mph - N/A Fog Fog
1:37 PM 55.4 °F 55.4 °F 100% 29.99 in 0.5 mi North 8.1 mph - N/A   Overcast
1:53 PM 55.9 °F 54.0 °F 93% 29.99 in 0.8 mi NNE 6.9 mph - N/A   Overcast
2:40 PM 55.4 °F 55.4 °F 100% 29.97 in 1.0 mi NE 9.2 mph - N/A   Overcast
2:53 PM 57.0 °F 55.0 °F 93% 29.97 in 0.8 mi NE 8.1 mph - N/A   Overcast
3:53 PM 55.9 °F 55.0 °F 97% 29.98 in 1.0 mi ENE 9.2 mph - N/A   Overcast
4:53 PM 55.9 °F 54.0 °F 93% 29.98 in 0.5 mi NE 9.2 mph - N/A   Overcast
5:16 PM 55.4 °F 53.6 °F 94% 29.97 in 0.2 mi NE 9.2 mph - N/A Fog Fog
5:36 PM 55.4 °F 53.6 °F 94% 29.98 in 0.8 mi NNE 8.1 mph - N/A   Overcast
5:50 PM 55.4 °F 53.6 °F 94% 29.99 in 1.2 mi NNE 8.1 mph - N/A   Overcast
5:53 PM 55.9 °F 54.0 °F 93% 29.99 in 1.2 mi NNE 6.9 mph - N/A   Overcast
6:20 PM 55.4 °F 53.6 °F 94% 29.99 in 0.5 mi NE 6.9 mph - N/A Fog Fog
6:27 PM 55.4 °F 53.6 °F 94% 29.99 in 0.2 mi NE 6.9 mph - N/A Fog Fog
6:38 PM 55.4 °F 53.6 °F 94% 29.99 in 1.0 mi NE 8.1 mph - N/A   Overcast
6:49 PM 55.4 °F 53.6 °F 94% 30.00 in 0.8 mi NE 5.8 mph - N/A   Overcast
6:53 PM 55.0 °F 54.0 °F 96% 30.01 in 0.8 mi NE 5.8 mph - N/A   Overcast
7:53 PM 55.9 °F 54.0 °F 93% 30.01 in 1.2 mi NNE 6.9 mph - 0.02 in Rain Light Rain
8:18 PM 55.4 °F 53.6 °F 94% 30.00 in 2.5 mi ENE 8.1 mph - 0.01 in Rain Light Rain
8:53 PM 55.9 °F 54.0 °F 93% 30.00 in 2.5 mi ENE 8.1 mph - 0.03 in Rain Light Rain
9:30 PM 55.4 °F 53.6 °F 94% 30.01 in 1.5 mi Calm Calm - 0.01 in Rain Light Rain
9:53 PM 55.9 °F 54.0 °F 93% 30.02 in 1.0 mi Calm Calm - 0.01 in   Overcast
10:01 PM 55.4 °F 53.6 °F 94% 30.01 in 0.5 mi North 3.5 mph - 0.00 in Rain Light Rain
10:29 PM 55.4 °F 55.4 °F 100% 30.01 in 0.2 mi NNE 3.5 mph - N/A Fog Fog
10:53 PM 55.9 °F 55.0 °F 97% 30.01 in 0.2 mi NNE 5.8 mph - 0.00 in Fog Fog
11:53 PM 55.9 °F 55.0 °F 97% 30.01 in 0.2 mi NE 3.5 mph - N/A Fog Fog